CAPE
3 3 12 0 0 0 0 0 0 0 0 0 0 0 0 0 0 0 0 0 0 0
1 1 1 0 0 0 0 0 0 0 0 0 0 0 0 0 0 0 0 0 0 0
3 0 0 0 0 0 0 0 0 0 0 0 0 0 0 0 0 0 0 0 0 0
0 6 0 0 0 0 0 0 0 0 0 0 0 0 0 0 0 0 0 0 0 0
0 1 4 0 0 0 0 0 4 0 0 0 0 0 0 0 0 0 0 0 0 0
3 1 0 0 0 0 2 3 5 0 0 0 0 0 0 0 0 0 0 0 0 0
5 4 2 0 0 0 0 2 2 0 0 0 0 0 0 0 0 0 0 0 0 0
3 1 4 1 0 1 0 0 0 0 0 0 0 0 0 0 0 0 0 0 0 0
3 2 4 3 1 0 0 0 0 0 0 0 0 0 0 0 0 0 0 0 0 0
3 3 3 1 4 1 0 0 0 0 0 0 0 0 0 0 0 0 0 0 0 0
3 2 3 2 3 2 2 0 0 0 0 0 0 0 0 0 0 0 0 0 0 0
1 2 3 2 1 3 2 2 2 1 0 0 0 0 0 0 0 0 0 0 0 0
1 1 1 3 2 1 2 2 3 2 2 2 1 0 0 0 0 0 0 0 0 0
1 1 1 1 1 2 1 1 3 3 3 3 2 1 1 0 0 0 0 0 0 0
CIN
-0 -69 -69 -0 -0 -0 -0 -0 -0 -0 -0 -0 -0 -0 -0 -0 -0 -0 -0 -0 -0 -0
-9 -0 -0 -0 -0 -0 -0 -0 -0 -0 -0 -0 -0 -0 -0 -0 -0 -0 -0 -0 -0 -0
-6 -0 -0 -0 -0 -0 -0 -0 -0 -0 -0 -0 -0 -0 -0 -0 -0 -0 -0 -0 -0 -0
-0 -10 -14 -0 -0 -0 -0 -0 -0 -0 -0 -0 -0 -0 -0 -0 -0 -0 -0 -0 -0 -0
-0 -1 -12 -8 -0 -0 -0 -0 -67 -0 -0 -0 -0 -0 -0 -0 -0 -0 -0 -0 -0 -0
-0 -0 -0 -0 -0 -0 -23 -47 -65 -0 -0 -0 -0 -0 -0 -0 -0 -0 -0 -0 -0 -0
-0 -0 -0 -0 -0 -0 -0 -40 -35 -0 -0 -0 -0 -0 -0 -0 -0 -0 -0 -0 -0 -0
-0 -0 -0 -0 -0 -0 -0 -0 -0 -0 -0 -0 -0 -0 -0 -0 -0 -0 -0 -0 -0 -0
-0 -0 -0 -0 -0 -0 -0 -10 -0 -0 -0 -0 -0 -0 -0 -0 -0 -0 -0 -0 -0 -0
-0 -0 -0 -0 -0 -0 -0 -0 -0 -0 -0 -0 -0 -0 -0 -0 -0 -0 -0 -0 -0 -0
-0 -0 -0 -0 -0 -0 -0 -0 -0 -3 -6 -0 -0 -0 -0 -0 -0 -0 -0 -0 -0 -0
-0 -0 -0 -0 -0 -0 -0 -0 -0 -0 -0 -0 -0 -0 -0 -0 -0 -0 -0 -0 -0 -0
-0 -0 -0 -0 -0 -0 -0 -0 -0 -0 -0 -0 -0 -0 -0 -0 -0 -0 -0 -0 -0 -0
-0 -0 -0 -0 -0 -0 -0 -0 -0 -0 -0 -0 -0 -0 -0 -0 -0 -0 -0 -0 -0 -0
Wind_Speed
32 30 27 26 25 25 24 23 22 21 21 20 20 19 17 16 16 16 16 17 18 18
32 31 29 27 24 24 23 24 22 21 22 21 20 19 18 19 18 18 17 17 18 18
32 31 30 28 27 25 25 24 24 23 23 22 21 21 20 21 20 19 19 19 19 19
31 31 31 30 29 27 25 23 23 23 23 22 22 22 22 22 21 22 22 21 21 21
30 30 31 31 31 29 28 25 24 23 24 23 23 21 22 23 23 23 24 24 24 24
28 29 30 30 29 27 26 26 26 26 26 25 25 24 24 25 25 25 25 24 24 26
26 27 29 28 27 28 27 27 27 27 28 29 28 27 27 26 27 26 26 25 25 25
25 25 28 29 28 28 28 27 27 27 28 27 28 28 27 27 27 26 26 25 25 24
22 25 26 26 27 27 26 26 25 25 24 25 25 25 24 25 25 25 26 27 25 22
19 20 21 23 25 26 25 24 23 23 23 23 23 23 22 22 23 23 23 22 22 22
20 20 21 23 24 22 23 21 21 22 22 22 23 22 21 21 21 21 21 20 19 20
19 19 20 19 19 20 19 17 18 17 16 17 19 19 18 16 17 18 18 17 17 18
16 16 16 17 18 18 16 17 16 15 15 15 16 16 15 14 15 16 17 18 18 16
16 15 16 15 15 15 13 13 13 10 11 12 13 12 11 11 12 13 13 13 13 14
Wind_Direction
245 245 246 247 251 252 251 249 246 246 250 251 251 254 251 258 258 253 254 262 265 269
244 246 248 250 252 252 253 253 251 250 250 254 254 252 252 258 256 259 257 262 263 265
245 247 249 251 253 253 255 254 254 253 253 256 256 255 255 260 260 260 263 266 266 269
252 248 249 251 253 255 257 255 255 255 255 256 258 257 254 258 261 261 265 268 269 269
256 253 250 251 253 255 256 257 256 257 256 258 259 258 256 258 263 263 264 269 271 271
258 256 255 252 252 254 254 257 257 257 257 259 261 261 261 263 265 267 267 269 269 275
261 260 256 255 253 256 258 259 259 259 260 261 263 263 265 265 267 268 271 271 272 274
266 265 260 259 258 259 260 261 261 261 262 263 264 266 266 267 268 268 271 273 273 275
271 265 264 265 263 261 260 261 260 261 262 264 267 267 267 269 270 270 271 273 274 273
279 275 270 271 268 264 262 260 258 261 264 266 268 269 271 271 274 273 273 274 271 271
286 284 282 276 272 270 264 260 261 264 266 269 270 272 273 271 273 276 276 276 274 278
296 291 288 282 275 270 267 265 267 271 272 273 277 276 272 272 272 276 280 281 283 283
308 306 301 289 287 278 277 275 273 271 276 284 286 287 275 272 277 278 284 286 286 286
312 309 310 303 297 291 288 278 273 278 281 291 301 303 298 287 283 283 284 293 293 292